Flag for El Salvador Weather past 2 weeks in San Salvador, El Salvador

Now
81 °F

Passing clouds.


Feels Like: 86 °F
Forecast: 68 / 85 °F
Wind: 3 mph from Southeast

Location: San Salvador / Ilopango

Current Time: Aug 1, 2014 at 8:04:49 PM

Latest Report: Aug 1, 2014 at 6:50 PM


Visibility: N/A

Pressure: 29.89 "Hg

Humidity: 84%

Dew point: 75 °F

Location of San SalvadorLocation

Historic Weather in San Salvador — Graph

°F

San Salvador temperature yesterday

Maximum temperature yesterday: 90 °F (at 12:50 PM)
Minimum temperature yesterday: 70 °F (at 5:50 AM)
Average temperature yesterday: 81 °F

Past Weeks' High & Low Weather Summary

 TemperatureHumidityPressure
High91 °F (Jul 21, 1:50 PM)100% (Jul 21, 10:50 PM)30.07 "Hg (Jul 21, 10:50 PM)
Low68 °F (Jul 27, 5:50 AM)49% (Jul 20, 12:50 PM)29.80 "Hg (Jul 29, 6:50 PM)
Average81 °F76%29.98 "Hg
* Reported Jul 17 4:50 PM — Aug 1 4:50 PM, San Salvador, Weather by CustomWeather, © 2014

Note: Actual official high and low records may vary slightly from our data, if they occured in-between our weather recording intervals... More about our weather records

Advertising

San Salvador weather history for previous 24 hours

 ConditionsComfort  
Time TempWeatherWind HumidityBarometerVisibility
4:50 PM
Aug 1
86 °FPassing clouds.3 mph70%29.89 "HgN/A
3:50 PM86 °FPassing clouds.5 mph70%29.89 "HgN/A
2:50 PM88 °FPassing clouds.5 mph59%30.01 "HgN/A
1:50 PM88 °FPassing clouds.No wind62%29.95 "HgN/A
12:50 PM88 °FPassing clouds.No wind59%29.95 "HgN/A
11:50 AM88 °FPassing clouds.5 mph62%29.98 "HgN/A
10:50 AM84 °FPassing clouds.5 mph70%29.98 "HgN/A
9:50 AM84 °FPassing clouds.7 mph70%29.98 "HgN/A
8:50 AM79 °FSunny.5 mph79%29.98 "Hg10 mi
7:50 AM75 °FSunny.7 mph83%29.98 "Hg10 mi
6:50 AM72 °FSunny.6 mph88%29.98 "Hg10 mi
5:50 AM72 °FSunny.6 mph88%29.95 "Hg10 mi
11:50 PM
Jul 31
75 °FPassing clouds.No wind89%29.98 "HgN/A
10:50 PM75 °FPassing clouds.3 mph89%29.98 "HgN/A
9:50 PM77 °FThundershowers. Passing clouds.No wind89%29.98 "HgN/A
8:50 PM77 °FPassing clouds.6 mph89%29.98 "HgN/A
Weather by CustomWeather, © 2014

See weather overviewHow to use our weather pages